Location: Strawberry
(45.6646°N, 111.9596°W)
Time: 12:14:44
(UTC+00:00)

Transit 4A - Pass Details

Date: 12 October 2022
Orbit: 871 x 973 km, 66.8° (Epoch: 26 November)

Event Time Altitude Azimuth Distance (km) Brightness Sun altitude
Exits shadow 10:16:28 - 342° (NNW) 2,737 10.4 -35.3°
Reaches altitude 10° 10:17:08 10° 346° (NNW) 2,548 10.3 -35.2°
Maximum altitude 10:21:36 22° 36° (NE) 1,831 9.9 -34.6°
Drops below altitude 10° 10:26:01 10° 86° (E) 2,521 10.9 -33.9°
Sets 10:29:05 0° 101° (ESE) 3,456 11.6 -33.4°
